Wind_Speed
1 2 2 2 6 7 7 8 7 10 14 16 12 6 9 10 13 15 15 16 18 19 22 23 24 22 22 20 19 17 16 13 11 10 9 9 8 8 8 7 6 7 9 11
3 3 2 6 10 8 8 7 14 15 19 15 18 5 12 13 18 13 12 13 15 17 18 21 21 20 19 19 19 17 15 12 10 9 10 11 12 12 12 13 13 12 12 14
3 2 7 3 4 5 3 7 7 8 15 11 4 5 12 15 19 19 11 11 18 20 19 19 20 18 20 20 16 16 15 12 10 7 7 10 11 12 14 15 15 15 17 18
3 2 1 4 7 5 6 6 13 14 7 3 11 16 15 11 17 21 13 15 18 20 20 23 20 19 19 18 16 11 10 9 7 7 5 6 7 8 9 9 11 12 14 16
2 1 7 1 4 6 6 9 17 15 3 9 17 19 15 13 16 20 17 19 18 19 21 21 19 18 18 15 17 14 8 7 8 8 7 6 6 4 3 3 3 3 3 6
2 2 3 3 9 13 7 3 18 19 5 9 12 4 4 9 15 18 18 16 17 18 18 19 19 17 14 18 17 16 14 12 11 11 10 10 10 9 9 8 8 7 6 5
4 3 4 6 16 11 1 6 19 17 20 15 5 8 19 17 19 19 18 15 14 14 14 14 14 15 17 19 21 20 17 15 15 15 14 14 13 12 12 12 11 11 11 12
3 3 4 14 5 5 8 5 9 12 14 26 27 26 22 19 20 18 17 16 15 15 16 15 15 13 16 17 19 16 15 15 15 14 14 14 13 14 13 12 11 13 13 14
4 1 3 5 3 4 7 6 6 10 14 26 28 23 20 21 20 18 17 16 15 16 16 16 15 16 19 20 17 17 17 18 18 17 16 16 16 16 16 16 16 18 18 19
3 4 7 7 7 7 7 12 12 13 12 19 26 22 20 18 17 16 15 15 14 14 16 16 15 16 18 17 16 17 20 21 21 20 19 20 19 19 19 19 18 18 18 18
4 4 3 14 12 8 9 10 13 15 16 16 19 17 17 17 16 15 15 15 15 16 17 17 17 18 17 17 16 18 20 21 20 20 20 19 19 19 18 18 16 16 16 14
2 5 3 7 8 7 12 14 14 15 16 13 14 16 14 17 16 16 17 17 18 19 19 19 18 19 19 18 16 16 17 18 18 17 17 17 16 16 16 15 13 12 12 11
2 6 15 13 12 11 14 13 14 15 15 17 17 15 16 18 17 17 17 17 17 18 17 16 15 16 16 15 13 13 14 14 13 12 12 12 12 11 12 12 10 8 7 7
9 12 8 3 10 12 13 13 13 15 16 16 16 16 16 17 17 17 17 16 15 14 14 13 12 13 14 12 10 10 10 10 8 8 8 8 8 9 8 7 7 7 7 7
13 6 14 14 12 11 10 10 12 14 13 15 14 16 15 16 17 16 14 13 12 11 12 11 10 11 11 10 9 8 8 7 7 6 6 6 6 5 5 5 6 7 7 7
11 13 12 12 10 9 8 8 11 13 13 14 15 15 15 14 15 13 11 10 8 10 11 9 8 9 8 8 7 7 6 5 5 4 4 3 3 4 4 5 5 5 5 5
8 9 10 11 10 10 10 10 12 13 14 14 14 15 14 13 13 12 11 10 9 8 7 6 7 7 6 6 5 5 5 4 3 3 3 3 3 3 4 5 5 5 5 5
6 8 8 9 11 12 12 12 12 13 13 14 14 14 13 12 11 10 8 8 7 6 5 6 6 6 5 5 5 5 4 3 3 2 3 3 3 4 4 4 4 5 5 6
9 10 11 10 10 12 12 13 13 14 15 14 13 13 11 9 8 6 5 4 2 2 4 4 4 5 4 4 4 4 3 2 2 2 2 2 3 3 3 4 4 5 5 6
10 10 10 12 13 12 15 15 15 16 15 12 11 10 9 7 6 5 5 3 2 2 3 3 4 5 5 5 4 3 3 2 2 2 2 2 3 3 4 4 5 6 7 8
12 12 14 16 19 18 16 15 13 14 14 11 8 8 7 6 5 4 3 2 1 1 2 2 3 4 4 4 4 3 3 2 2 2 3 3 4 4 5 5 6 7 8 9
18 18 19 18 18 18 16 13 11 11 10 8 8 7 6 5 5 4 2 1 1 0 1 2 4 4 4 4 4 4 3 4 4 4 5 6 6 6 7 7 8 9 10 10
17 17 17 15 14 14 13 10 9 8 7 8 7 7 7 6 5 5 5 3 3 3 3 4 5 6 6 5 5 5 5 5 6 6 7 8 8 8 9 9 10 11 11 11
16 15 13 12 11 10 8 8 7 6 6 6 6 7 8 8 8 6 5 4 4 4 5 5 5 6 7 7 6 6 6 6 7 7 8 9 9 9 9 10 10 11 11 12
12 11 10 9 7 6 5 4 3 2 2 3 5 6 7 8 7 5 4 3 3 5 6 6 5 6 8 7 6 6 7 8 9 10 10 10 10 10 11 12 12 13 14 14
8 6 4 3 3 2 2 2 3 4 4 5 6 7 8 9 7 6 4 4 5 5 6 6 7 8 8 8 8 9 10 11 12 13 13 12 12 13 14 14 14 14 15 16
4 3 2 2 3 4 5 5 6 7 8 8 8 9 10 8 6 5 4 4 6 8 8 9 10 10 11 12 12 12 12 13 14 15 14 14 15 15 15 14 15 16 17 18
Wind_Direction
159 105 171 193 248 252 241 239 242 278 275 282 291 255 130 103 62 44 27 29 52 70 95 109 122 131 140 146 147 150 158 167 174 179 179 172 185 197 207 215 222 231 236 239
318 154 194 268 278 283 260 256 257 273 279 283 279 219 139 117 91 62 42 39 54 72 79 94 103 111 124 133 146 162 163 172 185 191 200 200 203 211 215 224 232 243 259 264
268 283 318 253 157 335 286 292 278 299 304 291 333 192 142 124 104 90 54 58 64 66 65 83 95 103 110 114 123 145 152 150 151 179 196 208 209 213 220 226 233 238 244 249
252 312 234 112 325 114 333 298 317 308 319 106 104 81 76 96 111 106 100 74 68 70 69 73 80 90 101 110 118 118 118 118 135 157 176 183 187 193 204 217 230 233 238 244
322 281 307 25 65 16 357 328 13 357 87 135 128 96 56 71 93 92 84 74 69 73 70 74 76 80 90 100 101 111 115 108 111 123 124 125 130 133 146 173 177 206 228 244
138 271 254 60 334 325 293 242 7 346 283 182 189 166 115 88 90 92 88 78 77 69 60 63 68 77 86 84 89 92 90 100 97 98 97 93 91 91 93 93 93 93 85 66
211 258 283 3 324 321 188 345 340 337 319 225 176 91 117 110 94 90 86 80 80 81 79 69 66 72 73 72 73 76 80 85 87 86 86 81 81 85 83 80 80 75 71 63
170 225 268 3 7 35 321 337 3 12 59 95 99 105 108 97 87 85 80 78 78 83 82 78 74 73 78 74 73 78 80 82 82 85 91 96 96 95 92 88 86 85 80 79
234 303 71 40 81 9 22 49 33 73 92 112 114 108 101 91 86 81 79 79 81 83 83 81 78 79 82 80 81 83 87 88 88 93 96 98 100 97 95 95 93 90 85 82
290 72 49 42 57 50 66 89 99 108 107 118 111 111 102 92 85 82 84 86 90 93 89 83 77 78 79 82 85 87 88 88 86 85 87 85 83 83 85 83 82 83 81 78
300 54 70 54 49 56 80 98 109 110 104 100 107 95 96 93 91 90 91 91 94 91 87 85 84 81 81 82 84 86 86 84 83 81 79 80 81 83 81 81 78 77 74 73
326 351 66 58 60 85 91 89 98 110 110 102 97 99 99 100 104 105 100 97 95 91 86 83 83 83 82 78 75 75 79 79 76 74 74 74 73 75 72 68 61 58 59 57
28 79 111 105 95 96 93 94 100 101 102 103 100 106 108 108 108 107 104 100 95 91 87 83 82 83 81 78 74 75 76 76 74 71 67 66 63 60 56 50 41 29 34 40
159 125 88 122 103 101 98 101 104 102 102 102 109 113 113 112 112 107 102 96 93 92 90 84 82 84 79 74 68 68 66 68 63 58 55 51 48 42 40 36 28 24 21 18
95 162 120 116 107 99 99 106 104 98 102 107 114 114 118 119 114 109 104 100 99 98 93 86 81 80 77 71 63 60 57 55 55 48 44 41 38 33 24 17 14 15 14 4
113 113 118 113 109 104 104 109 110 109 113 115 120 121 123 120 115 112 107 99 97 88 78 71 69 70 66 63 59 55 54 53 55 46 40 34 28 24 25 27 30 35 34 35
132 117 118 108 108 103 102 107 113 117 119 122 123 124 124 121 116 113 106 96 84 79 76 70 66 61 56 55 53 53 50 45 44 34 31 33 34 39 46 48 47 46 43 43
117 133 143 125 122 116 113 114 120 123 123 124 125 126 123 120 115 111 104 88 70 58 62 58 57 50 44 49 54 53 49 41 34 30 34 34 33 39 41 39 37 30 24 16
112 118 121 121 118 125 122 120 120 119 119 122 125 124 119 117 113 112 104 93 92 61 59 52 53 40 30 27 36 34 32 28 19 11 14 11 10 8 7 7 3 359 357 353
115 113 117 120 120 121 122 121 123 122 118 121 121 112 108 101 92 79 72 62 54 45 40 36 28 18 14 14 24 19 9 0 351 337 337 335 335 338 338 335 333 332 334 334
110 113 116 118 116 114 113 114 121 120 116 111 100 96 90 87 81 72 61 43 45 46 26 8 353 351 350 348 350 340 331 329 326 318 310 312 313 314 315 315 317 320 321 323
110 113 112 111 114 113 110 110 109 106 104 99 94 85 78 69 62 57 50 58 67 8 320 330 337 342 343 343 336 327 321 314 309 307 307 308 309 309 309 309 310 312 314 315
114 111 109 109 110 109 109 108 103 98 93 86 72 65 58 45 29 18 13 19 14 355 342 337 336 341 341 334 326 323 319 318 318 317 315 312 306 302 300 300 303 306 311 312
115 113 110 103 94 90 88 86 84 83 71 60 43 31 23 15 4 3 6 7 1 1 355 347 349 352 353 345 336 330 329 328 325 322 321 320 318 314 310 307 305 306 308 309
113 108 102 96 91 84 74 67 64 52 22 3 355 353 351 349 353 355 356 352 343 336 336 344 348 345 339 336 333 328 322 320 323 321 314 309 307 310 309 306 305 305 306 307
110 108 99 91 73 45 2 333 306 301 304 302 310 317 331 335 335 340 342 344 343 339 329 323 328 327 325 323 321 318 318 314 315 316 310 303 300 302 303 301 301 304 306 306
97 92 68 16 344 328 318 302 287 284 287 286 288 293 304 308 304 313 330 333 332 332 325 315 310 311 310 306 304 301 302 306 308 309 305 301 301 300 299 299 300 302 303 303
Height
1422 1421 1423 1424 1423 1422 1423 1420 1421 1405 1406 1400 1398 1398 1400 1405 1404 1404 1404 1401 1397 1394 1391 1392 1393 1396 1400 1405 1409 1412 1416 1421 1424 1427 1430 1432 1435 1438 1441 1444 1446 1449 1451 1454
1423 1423 1424 1421 1417 1418 1416 1413 1411 1407 1401 1398 1394 1396 1400 1403 1402 1408 1409 1407 1401 1398 1396 1394 1395 1398 1402 1404 1408 1413 1415 1420 1423 1425 1427 1429 1432 1435 1437 1439 1441 1445 1447 1449
1423 1424 1419 1416 1415 1413 1413 1409 1407 1404 1398 1393 1395 1395 1399 1404 1404 1406 1412 1410 1405 1402 1402 1399 1398 1402 1402 1404 1410 1411 1414 1418 1419 1423 1425 1428 1429 1431 1433 1436 1438 1440 1442 1443
1427 1424 1424 1410 1410 1411 1410 1407 1403 1398 1395 1394 1400 1403 1404 1405 1406 1407 1409 1411 1409 1407 1407 1401 1402 1405 1405 1407 1411 1412 1415 1415 1417 1422 1426 1427 1427 1428 1429 1431 1433 1435 1436 1437
1427 1425 1416 1410 1413 1416 1413 1407 1408 1403 1402 1402 1403 1404 1411 1409 1409 1407 1410 1408 1411 1411 1409 1408 1410 1410 1408 1412 1408 1412 1412 1415 1419 1421 1425 1426 1425 1425 1427 1428 1430 1430 1432 1432
1434 1430 1426 1413 1415 1414 1411 1405 1412 1412 1406 1405 1405 1400 1412 1414 1413 1412 1414 1415 1415 1413 1414 1415 1416 1417 1418 1415 1415 1416 1418 1421 1424 1422 1425 1426 1425 1426 1426 1428 1429 1430 1430 1431
1428 1428 1419 1420 1416 1410 1407 1418 1417 1414 1405 1401 1404 1408 1413 1416 1415 1416 1417 1420 1420 1420 1420 1421 1423 1423 1419 1420 1417 1420 1423 1424 1424 1424 1426 1427 1427 1429 1428 1429 1430 1432 1431 1431
1429 1429 1425 1424 1417 1418 1427 1421 1420 1416 1410 1407 1410 1414 1416 1418 1418 1420 1422 1425 1425 1425 1426 1427 1427 1426 1423 1424 1424 1425 1426 1426 1425 1428 1430 1431 1431 1431 1431 1432 1433 1435 1434 1434
1425 1420 1427 1427 1428 1428 1425 1423 1422 1420 1418 1414 1412 1416 1421 1421 1422 1425 1427 1428 1430 1431 1431 1432 1433 1433 1430 1430 1431 1430 1430 1431 1432 1433 1434 1434 1433 1433 1432 1434 1436 1436 1437 1437
1424 1425 1427 1429 1430 1428 1426 1424 1423 1423 1424 1422 1419 1422 1423 1425 1427 1430 1432 1433 1435 1436 1437 1437 1437 1436 1435 1436 1436 1436 1435 1436 1436 1437 1438 1435 1436 1436 1437 1439 1439 1440 1441 1440
1426 1427 1430 1432 1432 1431 1430 1428 1426 1426 1427 1428 1425 1427 1428 1430 1432 1435 1437 1438 1439 1440 1441 1441 1441 1441 1441 1441 1441 1440 1438 1440 1441 1441 1440 1440 1440 1443 1444 1443 1444 1444 1442 1443
1430 1435 1436 1438 1436 1434 1433 1432 1432 1430 1430 1432 1430 1431 1433 1434 1437 1439 1441 1442 1443 1443 1445 1445 1445 1444 1443 1443 1444 1443 1443 1444 1444 1445 1445 1445 1447 1446 1446 1444 1445 1446 1445 1445
1437 1436 1435 1437 1438 1438 1437 1437 1436 1435 1436 1435 1435 1436 1439 1441 1442 1442 1443 1445 1446 1446 1447 1448 1448 1447 1447 1447 1448 1448 1447 1448 1449 1450 1450 1450 1449 1449 1448 1447 1447 1448 1448 1448
1437 1437 1440 1441 1442 1441 1440 1440 1440 1439 1439 1439 1439 1441 1442 1445 1445 1446 1447 1448 1449 1450 1451 1451 1452 1451 1451 1451 1451 1450 1451 1452 1452 1452 1452 1452 1451 1450 1450 1451 1451 1451 1450 1450
1438 1440 1441 1442 1443 1443 1443 1443 1443 1442 1443 1442 1444 1444 1446 1448 1448 1450 1452 1454 1454 1455 1454 1455 1455 1454 1453 1453 1453 1452 1452 1453 1453 1455 1454 1453 1453 1453 1453 1453 1453 1451 1450 1450
1443 1443 1444 1444 1445 1445 1445 1445 1444 1444 1446 1446 1447 1448 1451 1452 1453 1454 1456 1457 1458 1456 1455 1456 1456 1456 1455 1454 1454 1454 1455 1455 1456 1457 1456 1456 1456 1455 1454 1453 1452 1452 1451 1451
1444 1445 1446 1446 1446 1446 1446 1447 1447 1448 1449 1450 1451 1452 1454 1455 1456 1458 1459 1460 1458 1458 1459 1459 1458 1457 1456 1456 1456 1456 1457 1457 1457 1458 1457 1456 1456 1455 1454 1454 1453 1453 1453 1453
1444 1444 1445 1446 1446 1447 1448 1449 1450 1451 1452 1453 1455 1456 1457 1458 1459 1461 1462 1461 1460 1461 1461 1460 1459 1459 1458 1458 1458 1457 1457 1457 1457 1457 1456 1456 1456 1455 1454 1454 1454 1454 1454 1453
1445 1445 1446 1447 1448 1449 1450 1451 1452 1453 1455 1457 1458 1459 1460 1461 1462 1462 1462 1463 1464 1464 1463 1462 1462 1461 1460 1459 1458 1458 1458 1458 1457 1457 1456 1457 1456 1455 1455 1455 1454 1454 1453 1452
1446 1447 1447 1448 1449 1451 1452 1454 1456 1457 1459 1461 1462 1462 1462 1463 1463 1464 1463 1464 1464 1463 1462 1462 1461 1461 1460 1459 1458 1458 1458 1458 1457 1457 1457 1457 1456 1456 1455 1454 1453 1453 1451 1450
1447 1449 1450 1451 1452 1454 1456 1459 1461 1461 1462 1464 1464 1463 1464 1464 1464 1465 1465 1464 1463 1463 1463 1462 1462 1460 1460 1459 1458 1458 1458 1457 1457 1457 1457 1456 1455 1455 1453 1452 1451 1450 1449 1448
1451 1453 1454 1455 1456 1457 1460 1462 1464 1464 1464 1464 1465 1465 1465 1465 1465 1465 1464 1464 1463 1462 1462 1462 1460 1459 1458 1458 1457 1457 1456 1456 1456 1455 1455 1454 1453 1452 1450 1450 1449 1447 1446 1445
1455 1456 1457 1459 1461 1461 1462 1464 1464 1465 1465 1465 1465 1465 1465 1465 1464 1463 1462 1462 1461 1461 1461 1460 1458 1457 1457 1456 1455 1455 1454 1454 1453 1452 1451 1450 1449 1448 1448 1447 1445 1444 1443 1441
1458 1460 1461 1462 1463 1463 1464 1465 1466 1466 1466 1466 1466 1465 1465 1464 1463 1462 1461 1461 1460 1460 1459 1458 1457 1456 1455 1454 1453 1452 1452 1451 1450 1449 1448 1447 1446 1445 1444 1443 1442 1441 1439 1437
1462 1462 1463 1464 1465 1466 1466 1467 1467 1467 1467 1467 1466 1465 1465 1464 1463 1462 1461 1460 1459 1459 1458 1457 1456 1455 1454 1453 1452 1451 1450 1449 1448 1446 1445 1444 1443 1442 1441 1439 1438 1436 1435 1433
1464 1465 1466 1466 1467 1467 1467 1467 1466 1466 1466 1466 1465 1464 1463 1462 1461 1460 1459 1459 1458 1457 1456 1455 1454 1453 1452 1451 1450 1448 1447 1446 1444 1443 1441 1440 1439 1438 1436 1435 1433 1432 1430 1428
1465 1465 1466 1466 1466 1466 1465 1465 1464 1464 1464 1463 1463 1462 1462 1461 1460 1459 1458 1457 1457 1456 1454 1453 1452 1450 1449 1448 1446 1445 1443 1442 1441 1439 1437 1436 1434 1433 1431 1429 1428 1426 1425 1423